AirNav   Everest Fuels
 
 1389 users online  

9Z8 Levelock Airport
Levelock, Alaska, USA

GOING TO LEVELOCK?


FAA INFORMATION EFFECTIVE 31 JANUARY 2019

Location

FAA Identifier: 9Z8
Lat/Long: 59-07-37.5000N / 156-51-35.6000W
59-07.625000N / 156-51.593333W
59.1270833 / -156.8598889
(estimated)
Elevation: 55.8 ft. / 17.0 m (surveyed)
Variation: 18E (2000)
From city: 1 mile NNW of LEVELOCK, AK
Time zone: UTC -9 (UTC -8 during Daylight Saving Time)

Airport Operations

Airport use: Open to the public
Activation date: 06/2002
Control tower: no
ARTCC: ANCHORAGE CENTER
FSS: KENAI FLIGHT SERVICE STATION [907-283-8469]
NOTAMs facility: ENA (NOTAM-D service available)
Attendance: UNATNDD
Wind indicator: lighted, WINDSOCKS IN SOFT SOIL; MAY BE UNRELIABLE.
Segmented circle: yes
Lights: ACTVT MIRL RY 01/19 - CTAF.
Beacon: white-green (lighted land airport)
ACTVT ROTG BCN - CTAF.

Airport Communications

CTAF: 122.9
UNICOM: 122.95

Nearby radio navigation aids

VOR radial/distance  VOR name  Freq  Var
AKNr336/24.4KING SALMON VORTAC112.8016E

 
NDB name  Hdg/Dist  Freq  Var  ID
CHINOOK338/23.535516EAUB .- ..- -...

Airport Services

Parking: tiedowns

Runway Information

Runway 1/19

Dimensions: 3284 x 60 ft. / 1001 x 18 m
Surface: gravel/dirt, in good condition
RY AND SHOLDERS SOFT AND MUDDY WHEN WET. MULTIPLE 2-4 INCH RUTS ON RY EDGES AND CIRCULAR RUTS NEAR RY THLDS.
Runway edge lights: medium intensity
RUNWAY 1  RUNWAY 19
Latitude: 59-07.381872N59-07.866497N
Longitude: 156-51.823312W156-51.364055W
Elevation: 55.4 ft.52.3 ft.
Traffic pattern: leftleft
Runway heading: 008 magnetic, 026 true188 magnetic, 206 true
Touchdown point: yes, no lightsyes, no lights
Obstructions: 5 ft. brush, 5 ft. from runway, 96 ft. both sides of centerline, 1:1 slope to clear6 ft. brush, 70 ft. from runway, 170 ft. right of centerline, 11:1 slope to clear

Airport Ownership and Management from official FAA records

Ownership: Publicly-owned
Owner: ALASKA DOT&PF SOUTHCOAST REGION
P.O. BOX 112506
JUNEAU, AK 99811-2506
Phone (907) 465-1779
Manager: PAUL HANSEN
P. O. BOX 65
KING SALMON, AK 99613
Phone 907-246-3325

Airport Operational Statistics

Aircraft operations: avg 28/week *
51% transient general aviation
35% air taxi
14% local general aviation
* for 12-month period ending 31 December 2017

Additional Remarks

RY CONDITION NOT MONITORED; RECOMMEND VISUAL INSPECTION PRIOR TO LANDING.
SAFETY AREAS BYD THLDS SINKING SOFT SAND USE ONLY AS EMERGENCY OVERRUN.

Instrument Procedures

There are no published instrument procedures at 9Z8.

Some nearby airports with instrument procedures:

PANW - New Stuyahok Airport (25 nm NW)
PFWS - South Naknek Nr 2 Airport (26 nm S)
PAKN - King Salmon Airport (28 nm S)
PAIG - Igiugig Airport (32 nm E)
PAJZ - Koliganek Airport (38 nm N)
 
Loc | Ops | Rwys | IFR | FBO | Links
Com | Nav | Svcs | Stats | Notes

Crowley
 
Area around 9Z8 (Levelock Airport)
 
Road maps at: MapQuest Bing Google
 
Aerial photo
No photo
 
Sectional chart

 
Airport distance calculator
Flying to Levelock Airport? Find the distance to fly.

From to 9Z8

Sunrise and sunset
Times for 21-Feb-2019
 Local
(UTC-9)
 Zulu
(UTC)
Morning civil twilight08:0517:05
Sunrise08:4717:47
Sunset18:3503:35
Evening civil twilight19:1704:17

Current date and time
Zulu (UTC)  21-Feb-2019 15:15:34
Local (UTC-9)  21-Feb-2019 06:15:34
 
METAR
PANW 
24nm NW 
211456Z AUTO 30009KT 10SM SCT046 BKN120 M03/M04 A2996 RMK AO2 SNE04 SLP163 P0000 60000 T10331039 53028 FZRANO
PFWS 
26nm S 
211456Z AUTO 28015G19KT 10SM CLR M02/M02 A2999 RMK AO2 SLP163 T10171022 51031 PWINO FZRANO $
PAKN 
27nm S 
211454Z AUTO 28012KT 10SM OVC050 M01/M02 A2996 RMK AO2 SLP145 60001 T10111022 53031 TSNO
PAIG 
32nm E 
211501Z AUTO 26006KT 2 1/2SM -SN BR SCT006 OVC021 M02/M02 A2994 RMK AO2 VIS 1 3/4V4 P0000 FZRANO $
PAJZ 
38nm N 
211156Z AUTO 28005KT 2 1/2SM -SN BR SCT004 BKN009 OVC036 M04/M04 A2991 RMK AO2 UPB10E17SNB17 SLP136 P0000 60001 70001 T10391044 11017 21039 51015 FZRANO $
TAF
PAKN 
27nm S 
211315Z 2113/2212 27007KT P6SM SCT025 BKN040 TEMPO 2113/2117 27011G21KT BKN025 FM220000 27011KT P6SM SCT035 FM220600 VRB05KT P6SM BKN035
NOTAMs
Click for the latest NOTAMs
NOTAMs are issued by the DoD/FAA and will open in a separate window not controlled by AirNav.

 

 
 

Would you like to see your business listed on this page?

 If your business provides an interesting product or service to pilots, flight crews, aircraft, or users of the Levelock Airport, you should consider listing it here.  To start the listing process, click on the button below
 
Add a business
 

Other Pages about Levelock Airport

Update a link
 
Copyright © AirNav, LLC. All rights reserved. Privacy Policy  Contact